Hourly Data Report for November 26, 2006

TORONTO CITY
ONTARIO

43°40'00.000" N
79°24'00.000" W
112.50 m
6158355
71508
XTO

Download Data

Hourly Data (November 2006)
Hourly Data Report for November 26, 2006
TIME
LST
Temp Definition
°C
Dew Point Definition
°C
Rel Hum Definition
%
Precip. Amount Definition
mm

Wind Dir Definition
10's deg

Wind Spd Definition
km/h
Visibility Definition
km
Stn Press Definition
kPa
Hmdx Definition


Wind Chill Definition


Weather Definition


00:00 6.9 4.4 84   LegendMM LegendMM   100.69     LegendNANA
01:00 6.6 5.0 90   LegendMM LegendMM   100.70     LegendNANA
02:00 6.7 5.6 93   LegendMM LegendMM   100.73     LegendNANA
03:00 6.9 5.3 90   LegendMM LegendMM   100.77     LegendNANA
04:00 7.7 4.4 80   LegendMM LegendMM   100.76     LegendNANA
05:00 7.6 4.4 80   LegendMM LegendMM   100.75     LegendNANA
06:00 7.9 4.7 80   LegendMM LegendMM   100.83     LegendNANA
07:00 8.0 4.8 80   LegendMM LegendMM   100.84     LegendNANA
08:00 8.6 5.3 80   LegendMM LegendMM   100.90     LegendNANA
09:00 9.7 6.1 78   LegendMM LegendMM   100.95     LegendNANA
10:00 10.2 6.4 77   LegendMM LegendMM   100.99     LegendNANA
11:00 11.4 6.9 74   LegendMM LegendMM   100.99     LegendNANA
12:00 11.9 6.9 71   LegendMM LegendMM   100.95     LegendNANA
13:00 12.4 7.3 71   LegendMM LegendMM   100.93     LegendNANA
14:00 13.3 8.0 70   LegendMM LegendMM   100.92     LegendNANA
15:00 13.6 8.1 69   LegendMM LegendMM   100.92     LegendNANA
16:00 13.2 7.8 70   LegendMM LegendMM   100.98     LegendNANA
17:00 11.7 7.3 74   LegendMM LegendMM   100.98     LegendNANA
18:00 11.4 7.2 75   LegendMM LegendMM   100.99     LegendNANA
19:00 11.5 7.6 77   LegendMM LegendMM   100.99     LegendNANA
20:00 11.7 8.2 79   LegendMM LegendMM   100.97     LegendNANA
21:00 10.4 7.4 82   LegendMM LegendMM   100.98     LegendNANA
22:00 9.9 7.6 86   LegendMM LegendMM   100.98     LegendNANA
23:00 10.2 7.5 83   LegendMM LegendMM   100.96     LegendNANA

Notes on Data Quality.

Legend

  • E = Estimated
  • M = Missing
  • NA = Not Available*
  • [empty] = Indicates an unobserved value
Date modified: